Regional Weather Roundup
Issued by NWS New Orleans/Baton Rouge, LA

Home | Current Version | Previous Version | Text Only | Print | Product List | Glossary Off
Versions: 1 2 3 4 5 6 7 8 9 10 11 12 13 14 15 16 17 18 19 20 21 22 23 24 25 26 27 28 29 30 31 32 33 34 35 36 37 38 39 40 41 42 43 44 45 46 47 48 49 50

734
ASUS44 KLIX 311310
RWRLIX
NEW ORLEANS REGIONAL WEATHER ROUNDUP
NATIONAL WEATHER SERVICE NEW ORLEANS LA
800 AM CDT THU JUL 31 2014

NOTE: "FAIR" INDICATES FEW OR NO CLOUDS BELOW 12,000 FEET WITH NO
      SIGNIFICANT WEATHER AND/OR OBSTRUCTIONS TO VISIBILITY.
      SKY/WX - SKY CONDITION AND SIGNIFICANT WEATHER.
      TMP - AIR TEMPERATURE.     DP    - DEWPOINT TEMPERATURE.
      RH  - RELATIVE HUMIDITY.   PRES  - PRESSURE.
      HI  - HEAT INDEX.          WCI   - WIND CHILL INDEX.

*  THESE STATIONS ARE NOT NWS OR FAA STATIONS AND ARE NOT UNDER
   NWS QUALITY CONTROL.

LAZ038-040-048-061>063-065>067-069-311400-
SOUTHEAST LOUISIANA

CITY           SKY/WX    TMP DP  RH WIND       PRES   REMARKS
N.O. AUDUBON     N/A     81  67  61 MISG        N/A
N.O. INTL ARPT CLOUDY    79  68  69 E3        30.03R
N.O. LAKEFRONT MOSUNNY   77  67  71 E10       30.03R
N.O. DOWNTOWN*   N/A     79  64  61 NE7       30.03S
SLIDELL        PTSUNNY   71  64  78 NE5       30.04R
BATON ROUGE    CLOUDY    71  64  78 NE5       30.04R
BOOTHVILLE     MOSUNNY   80  69  69 CALM      30.03R
BELLE CHASSE   PTSUNNY   77  70  79 NE3       30.02R
BOGALUSA*      CLOUDY    70  64  79 CALM      30.07R
GALLIANO*      NOT AVBL
NEW ROADS*       N/A     71  65  82 CALM      30.05R
GONZALES*      PTSUNNY   71  69  92 CALM      30.04R
HAMMOND*       CLOUDY    72  61  68 CALM      30.06R
HOUMA*         MOSUNNY   77  68  73 CALM      30.02R
PORT FOURCHON* PTSUNNY   82  64  54 E5        30.03R

$$

MSZ070-080>082-311400-
SOUTHERN MISSISSIPPI

CITY           SKY/WX    TMP DP  RH WIND       PRES   REMARKS
MCCOMB         CLOUDY    72  60  66 NE5       30.07R
GULFPORT       MOSUNNY   75  61  61 NE7       30.03R
BILOXI         PTSUNNY   72  62  69 VRB2      30.03R
PASCAGOULA     SUNNY     70  65  84 N3        30.03R
STENNIS ARPT*  MOSUNNY  N/A N/A N/A NE3       30.04R

$$

COASTAL OBSERVATIONS
LAKE AND NEARSHORE STATIONS

STATION/POSITION TIME  TEMP    WIND        PRES    WAVE
                       AIR SEA DIR/SP/G            HT/PER
                 (UTC) (F)     (DEG/KT/KT) (MB)    (FT/S)
PASCAGOULA       1300   73      30/  7/ 10 1016.2
WAVELAND YACHT   1300   74      60/  9/ 10 1016.2
GRAND ISLE       1300   82 86  100/  4/  6 1017.1
SOUTHWEST PASS   1300   82 84   50/  5/  6 1016.8
NEW CANAL        1300   79 82   80/  4/  7 1017.1
SHELL BEACH      1300   79 80  200/  3/  3 1016.5

OFFSHORE STATIONS

STATION/POSITION TIME  TEMP    WIND        PRES    WAVE
                       AIR SEA DIR/SP/G            HT/PER
                 (UTC) (F)     (DEG/KT/KT) (MB)    (FT/S)
64 S DAUPHIN ISL 1155   82 85   10/  4/  6 1016.3

$$




USA.gov is the U.S. government's official web portal to all federal, state and local government web resources and services.